Powrót do katalogu

FENGYUN 1C DEB

AktywnySSO
NORAD 31424·DEBRIS·🇨🇳 China

Wystrzelony May 10, 1999 z Taiyuan Satellite Launch Center

Loading…

Następne Przeloty (najbliższe 24 godziny)

TLE

ŚwieżeSource: Space-Track

Epoka: Sep 14, 2026, 08:08 UTC

1 31424U 99025BTL 26257.33891478  .00000077  00000-0  65464-4 0  9997
2 31424  98.4492 289.4498 0093991  41.3826 319.4417 14.08552853670509

Śledź FENGYUN 1C DEB w czasie rzeczywistym z AllMySat

Download on the App Store